Wind_Speed
47 47 46 44 42 40 38 37 36 35 34 34 33 32 31 29 28 26 25 24 23 23 22 22 21 22 23 22 22 22 21 21 22 22 23 22 22 21 20 20 21 21 22 20 17 16 16 16 17 18 18 17 17 18 17 17 16 16 15 15 16 16 16 16 16 16 16 16 15 15 15 15 14 15 15 15 16 16 16 16 16 16 16 16 16 16
47 46 44 42 41 40 40 39 38 37 36 35 33 32 30 29 28 27 26 25 25 24 24 24 23 22 24 25 24 23 22 22 23 24 24 24 24 23 22 22 22 23 23 21 19 17 16 16 18 18 18 18 19 19 19 18 18 17 16 17 18 17 17 17 17 17 17 17 16 16 17 16 16 16 17 17 17 17 18 18 18 19 19 19 19 19
47 46 44 43 43 43 42 41 40 39 38 36 34 32 31 29 28 28 27 26 26 26 25 25 23 23 25 26 25 24 23 24 25 25 26 26 26 25 24 24 24 24 25 23 21 18 16 16 18 18 19 20 20 21 20 20 19 18 18 19 18 17 17 17 17 17 18 17 17 18 18 18 18 19 19 19 20 20 20 20 20 21 22 22 22 23
46 45 44 43 43 43 43 42 41 40 38 36 34 33 31 30 29 29 28 28 27 27 26 25 24 23 25 26 26 25 24 24 26 26 27 28 27 27 26 25 25 25 26 25 22 19 17 17 18 19 20 21 22 22 22 21 21 20 20 20 19 18 18 18 17 17 17 18 18 18 19 20 20 21 21 22 22 22 22 22 23 24 24 24 25 26
44 43 43 43 43 44 43 42 41 39 37 36 34 33 31 30 30 30 29 29 28 28 27 26 25 24 25 26 26 26 26 25 26 27 28 28 28 28 28 26 26 27 27 27 23 20 19 19 20 20 22 23 23 23 23 22 22 22 22 22 21 20 20 20 18 18 18 18 19 19 20 21 22 22 23 24 25 24 24 25 25 26 27 27 28 28
45 44 44 44 44 44 43 42 40 39 37 35 34 33 32 32 31 31 30 30 29 29 28 27 27 26 25 26 27 27 28 27 27 28 29 29 29 29 29 27 27 28 28 27 25 23 21 20 21 22 23 24 24 24 24 24 24 24 24 24 23 23 23 22 20 19 19 19 20 20 21 22 23 24 26 27 27 26 26 27 28 29 29 30 30 31
46 45 45 46 45 45 44 42 41 39 37 36 35 35 34 34 33 33 32 31 31 31 29 29 29 27 25 26 27 28 29 28 28 28 29 29 29 29 29 29 28 29 28 28 27 25 24 23 23 24 24 25 25 25 26 26 26 26 25 25 25 25 25 24 23 22 22 21 22 22 23 24 25 26 28 28 28 28 29 30 31 32 32 33 33 34
46 46 46 46 45 44 43 41 40 39 38 37 36 36 36 35 35 34 33 32 32 31 31 30 30 29 27 25 26 28 29 29 29 29 29 29 29 29 29 30 29 29 29 28 28 27 26 25 25 24 25 25 26 26 27 27 27 26 26 26 27 27 27 26 25 25 25 24 25 25 26 26 27 28 29 30 30 31 31 32 33 34 35 36 37 37
44 44 44 43 42 42 40 39 39 38 39 39 38 38 37 36 35 34 34 33 33 33 32 31 31 31 28 25 26 28 29 30 30 29 29 29 29 29 30 30 30 30 29 29 29 28 28 27 26 25 26 26 27 27 28 28 28 28 28 29 29 29 28 28 28 28 28 28 28 29 29 30 30 31 31 32 32 33 34 35 36 37 38 39 40 40
43 43 43 42 41 40 39 39 40 40 40 40 39 39 38 37 36 35 35 34 34 34 33 32 31 32 30 25 26 28 29 30 30 30 29 29 30 30 30 30 30 30 29 29 29 29 29 28 27 27 27 27 28 29 29 30 30 30 31 31 31 31 30 30 30 30 31 31 32 32 33 33 34 34 34 35 35 36 36 37 38 39 40 41 42 43
43 44 44 44 42 42 41 41 41 41 41 41 40 39 38 38 37 36 35 35 35 35 34 32 31 32 31 28 26 27 29 30 31 31 31 30 30 29 29 29 30 30 30 29 29 29 29 29 28 28 28 29 29 30 31 32 32 33 33 33 33 33 33 33 33 33 34 34 35 35 36 36 37 37 37 38 38 39 39 40 41 42 43 43 44 45
44 44 45 44 44 43 42 42 42 42 41 41 40 39 38 38 37 36 36 36 37 36 34 33 32 32 32 30 28 27 28 29 31 32 32 31 30 29 29 29 29 30 30 29 29 29 29 29 29 29 29 30 31 32 33 34 34 35 35 35 35 35 35 35 35 36 36 37 38 38 39 39 39 40 40 41 41 42 42 42 44 44 45 46 46 47
44 43 44 43 43 42 42 42 42 42 41 41 40 39 38 38 37 37 37 37 37 37 35 34 33 32 32 31 30 28 27 28 30 31 32 32 31 30 29 29 29 29 29 29 29 29 29 29 29 30 30 31 32 33 34 35 35 36 36 37 37 37 38 38 38 39 39 40 40 41 41 41 41 42 42 43 44 44 45 45 46 47 47 48 49 49
43 43 43 42 42 42 42 42 41 40 39 38 38 38 37 37 38 38 38 38 38 37 36 34 34 33 32 32 31 29 27 27 29 31 32 33 33 32 31 30 29 29 29 28 29 29 29 29 30 30 31 31 32 33 34 35 36 37 37 38 39 39 40 40 40 41 41 42 42 43 43 44 44 44 45 45 46 47 47 48 48 49 50 50 51 52
43 43 43 42 42 41 41 41 40 38 38 38 38 38 38 38 38 38 38 39 38 37 37 35 35 34 33 32 31 30 28 27 28 30 32 33 33 33 32 32 31 30 29 29 29 30 30 30 31 31 32 32 33 34 34 35 36 37 38 39 40 40 41 41 41 42 43 43 44 45 45 46 46 47 47 48 49 49 50 50 51 52 53 53 54 55
42 42 41 41 41 40 40 40 40 40 40 40 40 39 39 39 39 40 39 39 39 38 38 37 35 34 33 32 31 29 28 27 27 29 31 33 33 33 33 33 32 32 31 31 31 31 32 32 33 33 33 34 34 35 35 36 36 37 38 39 40 41 41 42 43 44 45 45 46 47 48 48 48 49 50 51 51 52 53 53 54 55 55 55 56 57
41 41 40 40 40 40 40 40 40 41 41 41 41 40 39 38 39 39 39 40 40 39 39 38 36 34 33 33 31 29 29 28 28 28 29 31 33 34 34 33 33 33 33 33 33 33 34 34 34 34 35 35 36 36 37 37 38 38 39 40 41 41 42 43 44 45 46 47 48 49 49 50 51 51 52 53 54 55 55 56 56 57 57 58 58 58
40 40 40 40 40 40 40 40 40 40 40 40 40 39 38 38 38 38 39 39 40 40 40 39 36 35 34 34 32 31 30 29 29 29 29 29 31 33 33 33 33 33 33 34 34 34 35 35 36 36 37 38 38 39 39 40 40 40 41 41 42 42 43 44 45 47 48 49 50 50 51 52 53 54 54 55 56 57 57 58 58 58 59 59 59 59
40 40 41 41 41 40 40 41 41 41 40 40 40 39 39 40 40 39 39 40 40 40 40 39 38 37 36 35 34 34 32 31 30 30 29 29 29 31 32 33 32 32 33 33 33 34 35 35 36 37 38 39 40 41 41 42 42 42 43 43 43 44 45 46 48 49 50 51 52 52 53 54 54 55 56 56 57 57 58 58 58 58 59 59 59 59
41 41 42 41 41 41 41 41 41 40 40 40 40 40 40 40 40 39 39 40 40 40 41 41 40 38 36 35 35 35 35 33 32 31 31 31 31 31 31 32 32 32 33 33 33 33 34 35 36 37 38 39 39 40 41 42 42 43 43 44 45 46 47 48 49 50 51 51 52 53 53 54 55 55 56 56 57 57 57 57 57 58 58 59 60 60
43 42 42 42 42 42 42 41 40 39 39 38 38 38 37 38 38 38 38 39 39 40 41 42 42 40 37 36 35 35 35 35 34 34 33 33 33 32 32 33 33 34 34 34 35 35 36 37 37 38 38 39 39 40 41 42 42 43 43 44 45 46 47 48 49 50 50 51 52 53 53 54 54 55 55 56 57 57 57 58 58 58 59 60 61 61
44 43 43 43 43 42 41 41 40 39 39 38 37 37 37 37 37 38 39 39 39 41 41 42 43 40 38 37 36 36 36 36 36 36 36 35 35 35 35 35 35 35 36 37 37 38 39 39 39 40 40 40 41 42 43 44 44 44 45 46 47 48 48 49 50 51 52 53 54 54 55 55 55 56 56 57 58 58 59 60 60 60 60 60 61 62
45 45 44 44 44 43 42 42 41 40 40 40 39 39 38 39 39 40 41 40 40 41 42 42 43 41 39 39 38 37 37 38 38 38 38 38 37 37 38 38 39 39 39 40 40 41 41 41 42 42 43 44 45 46 46 47 47 48 49 49 50 51 52 53 54 55 55 56 57 57 58 58 58 59 59 59 60 61 61 62 63 63 63 62 63 63
49 49 49 48 47 47 46 45 44 44 43 43 42 41 41 41 41 41 42 42 42 42 41 42 42 41 39 39 39 39 40 40 41 41 41 41 41 41 42 43 43 43 43 43 43 43 44 44 45 46 47 48 49 49 50 50 50 51 52 52 53 54 55 56 57 58 58 58 59 60 61 61 62 62 62 63 63 64 65 65 65 65 65 64 64 63
53 54 54 53 52 52 51 51 50 48 47 46 45 44 44 44 44 44 44 44 45 43 42 43 42 39 39 40 41 42 43 44 44 44 44 44 45 46 46 46 46 46 46 46 47 47 47 48 49 49 50 51 51 52 52 52 53 53 54 55 55 56 57 57 58 59 59 60 61 61 62 63 63 64 65 66 66 66 67 66 66 66 65 65 64 63
57 57 57 57 57 57 56 54 52 49 48 48 47 46 46 46 46 46 46 47 46 44 44 45 42 40 40 42 44 46 47 48 47 47 47 47 48 48 48 49 49 50 50 50 51 51 51 51 52 53 53 53 53 54 55 55 55 56 57 57 58 58 58 59 60 60 61 61 62 63 64 64 65 66 66 67 67 67 66 66 65 65 64 63 63 63
61 62 61 60 60 59 57 55 53 51 50 50 49 47 47 48 48 48 49 50 47 46 47 47 44 43 43 45 48 49 50 50 49 49 49 50 50 51 51 52 52 53 53 54 54 54 54 54 55 56 57 58 58 58 58 58 58 59 59 60 60 60 61 61 61 62 62 63 63 64 65 65 65 66 66 66 66 66 65 64 64 63 63 62 62 62
64 65 64 63 62 60 59 58 57 56 56 55 53 52 52 51 51 52 53 52 49 50 52 49 46 46 46 48 50 51 52 53 53 53 54 54 55 55 55 55 55 55 56 57 58 58 58 59 59 60 61 61 61 61 61 61 61 61 62 62 63 63 63 64 64 64 64 64 64 64 64 64 64 64 64 63 63 62 62 62 62 62 62 62 63 63
65 65 64 63 63 62 61 61 60 60 59 58 57 56 56 56 56 57 56 55 54 55 54 51 50 50 50 51 52 52 54 55 56 57 57 57 58 57 57 58 58 57 57 59 61 61 61 61 62 62 62 62 63 63 63 64 64 65 65 65 65 65 65 65 65 64 64 63 63 63 62 62 61 61 61 60 60 60 61 61 61 62 62 62 62 61
63 63 62 62 62 62 62 61 60 60 61 60 58 57 57 57 58 58 58 57 57 58 57 56 56 54 52 53 54 54 56 57 58 59 58 58 59 59 59 60 60 60 60 61 63 64 64 63 63 64 64 64 65 65 66 66 67 67 67 67 67 67 66 65 65 64 63 63 62 62 61 61 61 61 61 61 61 61 61 61 61 61 61 61 60 59
61 61 61 61 61 61 61 61 60 61 61 61 60 59 59 58 58 58 58 58 59 60 58 58 59 56 54 54 54 55 57 58 58 59 59 59 60 61 62 62 62 63 64 64 64 66 66 66 66 66 66 66 66 66 67 67 67 67 67 66 66 66 66 65 65 65 64 64 64 64 64 64 63 63 62 62 61 61 61 61 60 60 60 60 59 59
60 61 61 61 62 63 62 61 62 62 62 63 63 61 59 58 58 58 58 58 59 59 58 59 59 56 54 54 54 55 56 58 59 59 60 61 62 63 64 64 65 65 66 66 66 66 67 68 68 68 68 67 67 66 66 66 66 65 65 65 65 65 65 65 65 66 66 66 66 66 65 65 65 64 63 62 62 61 61 61 61 61 61 61 61 61
60 61 61 61 62 62 62 62 62 62 65 66 63 59 58 58 59 59 60 59 59 59 59 60 59 56 55 55 55 56 57 58 59 60 62 63 64 65 66 66 66 66 67 67 67 67 68 68 68 68 68 67 67 66 66 66 65 65 64 64 65 64 64 64 64 64 64 64 64 64 63 63 63 63 62 62 62 63 63 63 63 63 63 62 62 62
61 61 61 62 62 62 63 63 62 64 68 65 59 57 59 60 60 61 61 59 59 59 60 60 59 58 59 59 59 59 59 59 61 62 63 64 65 66 66 66 66 66 67 67 67 67 67 67 68 68 68 68 67 67 66 66 65 65 64 64 64 63 63 62 61 61 61 61 62 61 62 62 62 62 63 63 64 64 65 65 65 65 65 64 65 65
61 61 62 63 63 64 65 64 65 68 67 61 58 59 61 61 62 62 61 60 60 61 62 61 60 60 60 61 61 62 61 61 62 62 63 63 64 64 65 66 66 66 66 66 66 66 67 67 67 67 67 67 67 67 66 66 66 66 65 64 63 62 62 62 62 62 62 63 63 63 63 63 64 64 65 65 65 65 66 66 67 67 67 67 68 69
61 62 62 63 64 65 66 67 68 68 65 62 62 61 61 62 63 63 63 62 60 60 60 59 58 59 60 61 62 62 62 61 61 61 62 62 63 63 63 64 64 64 64 65 65 66 66 66 67 66 66 66 67 67 67 66 66 66 66 65 65 64 65 66 66 67 66 66 66 66 66 66 66 66 67 67 67 67 68 69 69 70 71 71 72 74
61 61 61 62 64 64 66 67 67 67 66 64 63 61 61 63 63 62 63 62 59 59 59 58 58 59 60 61 62 62 62 62 63 62 62 62 61 61 61 61 62 62 63 64 64 64 65 65 66 66 66 66 66 66 66 65 66 66 67 68 69 69 70 71 71 70 69 69 68 68 69 69 69 69 70 70 71 71 72 73 74 75 76 76 77 78
61 62 62 63 64 64 65 65 66 68 67 63 61 61 62 63 62 61 63 63 60 59 59 59 59 59 59 59 60 61 61 62 62 60 59 59 59 59 60 60 61 62 62 63 63 63 64 64 64 65 64 64 64 64 64 66 67 69 71 72 73 74 74 73 73 72 71 71 71 72 72 72 73 73 74 75 76 76 77 78 79 80 81 81 81 82
62 63 63 64 65 66 67 67 68 69 66 61 60 61 62 63 62 61 63 63 59 58 58 58 59 58 57 57 57 58 59 60 59 57 58 59 60 60 61 61 61 62 62 62 62 62 63 63 63 63 63 63 64 65 67 70 72 74 75 75 75 75 75 74 74 74 74 74 75 76 77 77 78 79 79 80 80 81 82 82 83 84 85 86 86 86
62 63 64 65 66 67 67 68 69 69 65 62 62 63 62 62 60 61 62 59 55 53 53 53 55 56 54 54 55 56 57 58 57 57 59 61 61 61 61 61 61 61 61 61 62 62 63 63 64 64 65 67 69 71 73 75 76 77 77 76 76 75 75 76 76 76 77 78 79 80 82 83 83 84 84 85 85 85 86 87 88 88 89 89 90 90
59 60 61 63 63 64 65 66 67 67 64 62 62 62 61 60 60 61 59 55 52 51 50 51 54 55 53 54 56 56 57 57 57 58 59 59 60 60 60 61 61 62 63 64 65 66 67 67 68 69 71 73 75 76 77 77 78 78 78 78 78 78 78 78 79 80 81 82 83 84 85 86 87 87 88 89 89 89 89 90 91 91 92 93 93 93
57 57 58 59 59 60 61 61 63 64 61 60 60 61 62 63 63 60 57 54 54 54 54 55 57 56 55 56 57 57 58 58 58 59 59 59 60 61 62 64 65 67 68 69 69 70 70 71 73 74 76 77 78 79 79 79 79 80 80 80 81 81 81 82 83 84 84 85 86 87 88 88 89 89 90 90 91 91 91 92 93 93 94 95 95 96
59 58 59 59 57 57 58 59 60 60 57 56 57 60 63 63 61 57 56 56 56 57 57 59 60 60 59 59 58 58 59 59 60 60 61 62 63 64 66 68 69 70 71 71 72 72 73 75 77 79 80 81 81 81 81 81 81 81 82 83 83 84 84 85 85 86 86 87 88 88 89 89 89 90 90 91 91 92 92 92 93 93 94 95 96 97
63 62 62 62 61 61 62 62 61 57 54 54 55 56 58 59 57 56 58 58 58 59 60 61 62 63 63 63 62 62 62 62 63 64 64 66 67 68 69 69 70 72 73 73 74 75 76 79 81 82 83 83 83 83 83 83 83 83 84 84 85 85 86 86 87 87 87 88 88 88 89 89 89 90 90 91 91 92 92 93 93 94 95 96 97 98
66 65 64 64 64 63 64 63 61 59 58 58 58 59 61 61 62 63 64 63 63 64 64 64 65 66 67 68 68 68 67 67 68 68 69 69 70 70 71 72 73 74 75 76 77 78 81 82 83 83 84 84 84 84 84 84 84 84 84 85 85 85 86 86 87 87 87 87 88 88 89 89 90 90 91 92 93 93 94 94 95 95 96 96 97 98
65 65 65 65 65 65 65 64 63 63 63 63 63 65 66 67 68 68 69 69 69 68 69 69 69 69 70 71 72 72 73 73 72 72 72 72 73 73 74 74 75 76 77 79 81 83 84 84 84 83 83 83 84 84 84 84 85 85 85 85 86 86 86 87 87 87 87 88 88 89 90 90 91 91 91 92 93 94 95 96 96 97 97 97 98 98
63 64 65 65 66 67 68 67 66 65 65 65 66 67 69 70 71 71 71 71 71 71 71 72 72 72 73 74 75 75 76 76 76 76 76 76 76 76 76 76 78 79 80 82 83 83 84 83 82 82 82 82 82 82 82 83 83 84 85 86 86 87 87 87 88 88 88 89 89 90 90 91 91 92 92 92 93 94 94 95 96 97 98 98 98 99
65 64 65 66 66 67 68 67 67 67 68 68 68 69 70 71 72 72 72 72 72 72 73 74 75 76 77 77 78 78 78 78 78 78 78 78 78 78 78 78 79 79 80 81 81 81 81 81 80 80 80 79 79 79 79 80 81 82 83 84 85 86 86 87 87 88 88 89 89 90 90 91 91 92 92 93 93 94 94 95 96 97 97 98 99 100
71 70 69 69 69 69 68 67 67 68 68 68 68 68 69 71 71 72 72 73 73 74 75 76 77 77 78 78 79 79 79 79 79 79 79 79 79 78 78 78 78 78 78 78 78 78 78 78 78 77 77 77 77 77 78 78 79 80 81 82 83 84 85 85 86 87 87 88 89 90 90 91 92 92 93 93 94 94 95 96 97 98 98 98 100 101
71 72 72 72 72 72 71 68 66 66 66 65 64 64 66 68 70 72 73 73 74 75 75 75 76 76 76 77 77 77 77 77 77 77 77 77 76 76 75 75 74 74 74 74 74 74 74 74 74 74 74 75 75 76 77 78 79 80 81 82 83 83 84 85 86 86 87 88 89 90 91 92 92 93 94 95 96 96 96 97 97 99 99 99 99 100
68 68 69 69 69 70 68 66 66 66 66 66 66 66 67 68 69 70 71 72 72 72 72 73 73 73 73 73 73 74 74 74 74 74 73 73 73 72 72 72 71 71 71 71 71 71 71 72 72 73 74 75 75 76 77 78 79 80 81 82 83 84 86 87 87 88 89 90 91 92 93 94 94 95 96 97 98 99 99 98 98 98 98 98 98 98
Wind_Direction
203 203 203 203 204 205 206 207 206 206 207 208 208 209 211 214 216 219 221 223 226 228 231 234 235 239 243 242 241 241 240 240 241 243 245 246 247 246 246 248 251 253 255 254 251 252 255 256 257 261 264 264 264 263 265 268 271 275 279 280 281 285 286 284 285 285 283 283 284 286 288 290 293 295 298 301 303 305 306 308 309 308 307 307 306 306
205 204 204 205 207 209 209 209 208 209 210 211 212 213 214 217 219 223 226 228 231 233 234 236 236 238 243 245 243 242 241 240 242 242 244 246 247 247 247 248 250 253 256 255 251 251 254 257 259 261 261 259 258 260 263 267 269 273 275 277 281 286 285 285 287 286 284 285 286 286 288 290 293 295 298 300 302 304 305 307 307 306 307 307 306 306
205 205 206 208 209 210 210 210 210 211 212 214 215 216 217 220 223 226 230 233 236 238 239 240 240 240 243 246 246 245 241 241 242 243 244 245 245 246 247 249 251 253 255 255 254 254 255 255 256 256 254 253 254 257 261 264 267 271 273 276 281 283 283 284 286 286 287 288 287 286 288 290 292 294 297 299 300 300 302 305 305 305 306 306 306 306
208 208 209 210 210 211 212 212 213 214 215 216 218 219 221 224 227 230 233 236 239 242 244 245 244 242 244 247 249 249 245 242 243 243 243 245 245 246 246 247 249 252 255 258 258 255 252 251 251 250 249 248 250 254 258 262 266 269 272 274 276 277 278 279 282 285 287 287 286 285 286 288 290 293 295 296 296 297 300 302 301 302 303 303 304 305
210 212 213 212 213 214 214 214 215 217 218 219 221 223 225 228 231 234 237 240 243 245 247 248 247 244 246 249 250 251 249 245 243 243 243 244 245 246 247 246 247 250 254 258 259 255 250 249 249 248 247 246 249 252 256 260 263 266 269 271 273 274 275 277 280 282 283 284 285 284 284 285 287 289 291 291 292 295 298 299 299 299 299 300 301 301
210 212 212 213 215 215 216 217 218 220 221 222 224 227 229 232 235 238 241 243 246 247 248 249 249 246 247 251 253 253 252 249 246 244 243 243 245 247 248 248 248 249 252 256 259 256 251 248 247 247 246 247 249 251 254 255 257 261 264 269 273 275 276 278 280 280 281 284 285 285 285 284 285 286 286 287 290 293 295 297 297 297 297 298 298 298
211 211 212 213 215 215 216 217 219 221 223 224 227 229 232 235 238 240 242 244 246 248 248 248 250 250 249 252 254 254 254 252 248 246 244 243 244 246 247 248 248 249 251 253 255 255 252 248 247 247 248 250 251 252 253 255 256 259 263 267 271 274 276 279 280 280 282 284 285 286 286 286 285 285 285 286 289 292 293 295 296 296 296 296 297 298
212 213 214 215 216 217 218 219 221 223 225 227 229 232 235 237 239 241 243 245 247 248 249 249 252 254 253 253 254 254 254 253 250 247 244 243 242 243 246 247 248 249 251 252 253 254 252 250 250 250 252 253 254 254 255 257 259 261 264 267 269 272 274 277 279 280 281 282 283 284 284 285 285 285 286 287 289 290 292 293 294 295 296 296 297 298
215 216 217 219 220 220 221 223 225 226 227 229 231 233 236 238 240 242 244 246 247 248 249 250 253 257 257 254 254 255 255 254 253 249 246 244 243 243 244 246 247 248 250 252 254 255 254 252 252 253 255 256 257 257 258 260 262 263 265 267 268 270 272 274 276 278 279 279 281 281 283 284 285 286 288 289 290 291 291 292 293 294 295 296 297 297
215 217 219 221 221 222 223 224 226 227 229 230 232 234 236 238 240 242 243 245 247 248 249 251 253 258 258 254 252 254 254 255 255 252 249 246 244 244 244 246 248 249 251 252 253 255 256 255 254 255 256 257 258 259 260 260 262 263 265 266 268 270 271 273 275 277 278 279 281 282 284 285 286 287 289 290 291 291 292 292 293 294 295 295 295 295
213 215 218 220 221 222 223 224 226 228 230 231 233 235 236 238 240 242 244 246 248 249 250 252 254 258 259 255 252 252 253 254 255 254 252 250 248 246 245 246 248 251 252 252 253 254 255 256 256 256 257 258 259 259 260 261 262 263 265 267 269 271 273 274 276 278 279 280 281 282 284 284 285 286 287 288 290 290 291 292 292 292 293 293 293 293
213 214 216 218 219 221 223 225 227 228 230 232 234 235 237 239 240 242 244 246 248 250 251 253 255 257 259 258 254 251 250 252 254 254 254 253 252 250 249 248 249 251 253 254 254 254 253 254 256 258 259 260 260 260 261 261 262 264 266 268 270 272 273 275 276 278 278 279 280 281 282 283 283 284 284 286 287 288 288 289 289 289 290 290 290 290
215 216 218 219 220 222 224 226 228 229 231 233 235 236 237 239 241 243 245 247 249 251 252 253 254 256 258 259 257 253 249 248 251 254 255 256 255 254 252 251 250 252 254 255 256 255 255 255 256 258 260 261 261 261 261 262 263 264 265 267 268 269 270 272 273 274 275 276 277 279 280 280 280 281 282 283 284 285 285 286 286 287 287 288 288 288
219 220 221 222 224 225 227 229 231 232 234 236 237 238 240 241 244 245 247 248 249 250 251 252 253 254 256 258 258 256 252 248 247 249 252 254 255 255 254 254 253 253 253 254 254 255 255 256 257 259 260 261 261 261 262 262 263 263 264 265 266 267 268 269 271 272 273 274 275 276 277 278 279 280 281 282 283 284 285 285 286 286 287 287 287 288
223 225 226 227 229 230 231 232 233 234 234 235 235 236 238 239 242 244 246 247 248 249 250 251 252 253 255 256 257 258 256 250 245 244 247 250 252 254 255 255 255 254 253 253 252 253 254 255 257 259 260 261 262 262 263 263 263 263 264 265 266 267 268 269 271 272 273 275 276 277 279 280 281 282 283 284 284 285 285 286 286 287 287 287 288 288
221 223 225 227 229 231 232 233 233 234 234 235 236 237 238 240 242 244 245 246 248 248 249 250 251 252 254 255 256 257 257 253 248 244 244 246 249 250 252 253 254 255 254 254 254 254 255 256 257 259 260 261 262 263 264 264 265 265 265 266 267 268 270 272 273 275 276 277 278 279 281 282 283 284 284 285 285 286 286 286 287 287 287 288 288 289
221 223 223 225 227 228 230 231 233 234 235 237 238 239 241 242 244 245 245 246 247 247 248 248 250 251 253 254 255 256 256 255 252 247 243 243 245 247 249 250 251 252 253 254 254 255 256 257 259 260 262 263 264 264 265 266 266 267 268 268 270 271 273 274 276 277 278 279 280 281 282 283 283 284 284 285 285 286 286 286 287 287 287 288 288 289
223 225 225 226 228 228 230 231 233 234 235 236 238 239 241 242 242 243 244 244 245 247 248 248 249 250 251 254 255 255 255 254 253 251 247 244 244 245 247 249 249 249 250 251 252 254 255 257 258 260 261 263 264 265 266 267 268 269 270 271 272 274 275 276 276 277 278 278 279 280 281 281 282 282 283 283 284 284 285 285 286 286 287 287 288 288
222 224 224 225 227 228 230 231 231 232 234 235 236 237 238 240 241 242 244 245 246 248 248 248 248 248 250 252 254 254 254 253 253 253 252 249 246 245 246 248 250 250 250 251 252 253 255 256 257 258 259 261 262 264 266 267 268 269 270 272 273 274 275 275 276 276 277 277 278 279 279 280 280 281 282 282 283 284 284 285 286 286 287 287 288 288
222 224 225 225 226 228 229 230 230 231 233 235 236 236 238 241 242 243 245 247 248 249 249 248 247 247 248 250 251 253 254 253 253 253 253 252 250 248 248 249 252 253 254 255 255 256 257 257 258 259 260 261 262 264 265 266 268 269 270 271 272 273 274 275 275 276 277 278 278 279 280 280 281 282 282 283 284 284 285 286 287 287 288 289 289 290
224 226 227 227 227 228 229 230 230 232 234 236 237 238 240 242 244 246 247 247 248 249 249 249 247 246 246 248 250 252 254 255 254 253 253 253 253 253 252 252 253 255 256 258 259 259 260 260 261 262 264 265 266 267 268 269 269 270 271 272 272 273 274 275 276 277 278 279 279 280 281 281 282 282 283 284 284 285 286 287 288 289 289 290 290 291
226 227 229 230 230 231 232 232 233 235 236 237 238 239 240 241 242 244 244 244 245 247 248 248 247 245 246 248 248 250 253 255 255 256 257 257 257 258 258 258 257 257 258 258 259 261 262 264 265 266 268 269 270 271 272 273 274 274 275 275 276 277 278 279 280 281 281 281 282 282 282 283 283 284 285 286 287 288 288 289 290 289 289 289 289 290
230 231 233 235 235 236 236 236 236 238 239 239 239 239 240 241 240 242 244 244 246 247 248 249 248 245 246 248 249 251 253 255 258 259 260 261 262 262 261 261 261 260 260 261 261 263 264 266 268 269 270 271 272 273 274 276 277 277 278 279 280 280 281 282 282 283 283 283 284 284 284 285 286 286 287 287 288 288 288 288 289 288 288 288 289 289
232 234 236 237 238 239 239 238 238 239 240 240 239 239 241 242 242 244 245 245 247 247 248 251 249 246 247 251 253 255 257 259 261 262 262 264 264 265 265 265 265 265 265 266 266 267 268 268 269 270 270 271 272 273 275 276 276 277 278 279 280 281 281 281 282 282 282 283 283 284 285 285 286 286 287 287 287 287 288 288 288 288 289 289 289 290
234 236 237 238 239 240 239 238 237 237 238 238 238 239 241 243 244 247 248 249 249 248 250 253 251 248 251 254 255 258 260 261 263 264 265 266 267 268 269 270 270 271 271 271 271 271 271 271 271 271 271 272 273 274 274 275 276 276 277 278 279 279 280 280 281 281 282 282 283 283 284 284 284 285 286 286 287 287 288 289 289 289 289 289 289 289
237 238 238 240 241 240 239 238 237 238 241 242 243 244 247 248 250 252 254 254 253 251 252 254 252 251 253 254 255 258 260 262 264 266 267 269 270 271 272 272 273 273 274 274 273 273 273 274 274 274 274 274 274 275 275 276 277 277 278 278 279 279 280 280 280 281 281 282 282 283 283 284 284 285 285 286 287 287 288 288 289 289 289 288 288 288
237 239 238 240 241 240 240 240 240 241 245 246 246 248 250 252 254 255 256 255 254 254 254 252 253 252 252 254 256 259 263 266 267 268 268 269 270 270 270 271 272 273 274 274 274 275 275 276 276 277 277 277 277 278 279 279 279 279 279 280 280 280 281 281 281 281 282 282 283 283 284 285 285 286 286 287 287 287 288 288 288 288 288 288 288 288
239 239 239 240 241 241 242 243 242 242 244 245 245 246 248 250 250 252 253 252 252 253 251 249 252 253 252 255 257 259 264 267 267 267 267 267 268 269 271 272 272 273 275 275 275 276 277 277 278 279 279 281 281 282 282 282 282 282 283 283 283 284 284 284 284 285 285 285 285 285 285 285 286 286 286 286 286 286 287 287 287 287 287 288 288 288
242 242 241 242 243 244 245 246 246 246 247 247 247 247 248 249 250 250 251 251 251 253 251 249 252 253 252 255 257 259 262 264 266 267 268 269 271 273 274 275 275 275 275 276 277 277 277 278 279 280 281 282 283 283 284 284 284 285 286 286 287 287 288 288 289 289 288 288 288 287 287 286 286 286 286 286 286 286 286 286 286 286 286 286 287 287
245 246 246 247 247 247 248 249 249 249 250 250 249 249 250 251 252 253 253 253 254 255 254 253 253 253 254 258 260 262 264 266 268 270 271 273 274 275 275 275 275 275 275 275 277 277 278 279 280 281 281 282 283 283 284 285 286 287 287 288 289 289 289 290 290 289 289 289 288 288 288 287 287 287 287 287 286 286 286 286 286 286 286 286 286 286
246 248 249 250 250 250 251 252 252 252 252 252 252 251 251 252 253 254 254 255 256 257 257 258 257 254 257 262 264 265 267 268 269 270 271 272 272 272 273 273 274 275 276 276 277 278 280 280 281 281 282 282 283 284 285 286 286 287 288 288 289 289 289 289 289 288 288 288 288 288 288 288 288 288 287 287 287 286 286 286 286 286 286 286 286 286
245 247 248 250 250 251 252 253 253 254 254 253 252 252 253 254 255 255 256 256 258 260 260 261 259 256 259 264 265 264 265 266 267 268 268 269 269 270 271 272 274 275 276 277 278 279 280 281 282 282 283 283 284 284 285 285 286 286 286 287 287 287 287 287 287 287 287 287 287 287 287 288 288 288 288 288 288 288 288 288 288 288 288 288 288 288
244 245 247 248 249 251 252 252 252 252 251 251 252 254 255 257 257 257 257 258 259 261 261 262 262 260 260 262 263 263 263 264 264 265 266 267 268 270 271 273 274 275 276 277 278 279 280 281 281 282 283 283 284 284 284 284 285 285 285 285 285 286 286 286 287 287 287 287 287 287 287 287 288 288 288 289 289 289 290 290 290 290 290 289 289 288
244 245 246 246 247 248 249 249 249 248 248 251 254 255 257 257 257 257 258 258 259 259 260 261 262 261 261 261 262 262 263 263 263 264 265 266 268 270 272 273 274 274 275 276 277 278 279 279 280 280 281 282 282 283 283 283 283 284 284 284 285 285 286 286 287 287 288 288 288 288 288 288 288 288 288 289 289 289 290 290 290 289 289 289 289 288
244 245 245 246 246 247 248 247 246 247 251 255 255 255 256 256 256 257 258 258 258 258 259 261 262 262 263 263 263 264 264 264 264 264 266 267 268 269 270 271 272 274 274 275 276 277 277 278 278 279 280 280 281 281 282 282 282 283 283 283 284 284 285 286 287 288 288 288 287 287 287 287 287 287 287 288 288 288 288 289 289 289 289 289 289 290
244 245 245 246 247 247 248 248 249 252 255 256 255 255 256 257 258 259 259 259 259 260 260 261 262 263 262 262 262 262 262 263 263 263 265 267 268 268 269 270 271 272 273 273 274 275 276 277 277 278 279 279 280 280 281 281 282 282 283 283 283 284 285 286 287 287 287 286 286 286 285 285 286 286 286 287 287 288 288 289 289 290 290 290 291 291
243 244 246 247 247 248 249 251 252 254 255 254 255 256 258 259 259 259 259 258 258 259 260 261 261 261 261 261 261 261 261 261 262 264 266 267 267 268 268 269 270 270 271 272 273 274 275 276 277 278 278 279 279 280 280 281 282 283 284 284 285 285 286 286 287 287 287 287 286 286 286 286 287 287 288 288 289 289 290 290 291 291 292 292 292 292
244 245 245 246 247 248 250 251 252 253 254 254 256 257 258 258 257 257 257 258 258 260 261 262 262 261 259 259 260 261 262 262 264 267 268 267 266 266 267 268 270 271 272 273 274 275 276 277 277 278 278 278 279 280 281 282 283 284 284 285 285 285 286 286 287 287 288 288 288 288 289 289 289 289 289 290 290 291 292 292 292 293 293 293 293 293
244 244 245 245 246 248 249 251 252 254 256 256 256 257 257 257 257 257 257 258 260 261 261 262 261 260 258 259 260 261 262 264 266 268 267 266 267 268 269 270 271 272 273 274 276 277 277 278 278 278 278 278 279 280 281 283 284 284 284 284 284 285 286 286 287 287 288 289 289 290 290 290 290 291 291 291 292 292 292 293 293 293 293 293 293 294
243 243 244 244 245 247 249 250 252 255 256 256 256 257 256 256 256 255 256 259 261 259 258 259 259 258 258 259 260 261 263 265 266 266 266 268 269 270 271 272 272 273 274 275 276 276 277 277 277 277 277 278 279 281 282 283 284 284 285 285 285 285 286 287 288 288 289 289 290 290 291 291 291 292 292 292 292 293 293 293 293 293 294 294 294 294
244 245 245 246 247 248 248 250 251 253 255 256 256 256 256 256 254 254 257 261 261 257 256 256 256 257 258 259 260 262 263 264 264 265 266 268 269 270 271 272 273 274 274 275 275 275 275 276 276 277 278 280 281 283 284 285 285 285 286 286 286 287 288 288 289 289 289 290 290 291 291 292 292 292 292 292 293 293 293 293 293 294 294 294 294 294
244 246 247 247 247 248 249 251 252 251 251 252 254 255 255 255 255 256 259 260 258 257 257 256 256 258 258 259 261 262 263 263 264 264 265 266 267 268 270 272 273 274 275 275 276 276 277 278 280 281 282 283 284 285 285 285 286 286 286 286 287 287 288 288 289 289 289 290 290 290 290 291 291 291 291 292 292 292 292 292 292 293 293 293 293 293
246 247 249 248 248 249 250 250 251 251 249 250 252 254 255 257 258 258 258 257 257 258 258 258 259 260 260 260 261 262 263 264 264 265 266 268 270 271 272 273 275 275 275 276 277 278 280 282 283 284 285 285 285 285 285 285 285 285 286 286 286 287 287 288 288 288 288 289 289 289 289 289 289 290 290 290 290 290 291 291 291 291 292 292 292 293
246 247 249 250 250 251 251 252 253 253 251 250 251 254 256 258 259 258 257 257 257 258 258 259 261 262 263 264 264 264 265 266 266 267 269 270 272 273 274 275 275 275 276 276 277 278 280 282 284 285 284 284 284 284 284 284 284 284 284 285 285 286 286 286 287 287 287 287 287 287 287 287 288 288 288 288 289 289 289 290 290 290 291 291 292 292
248 248 250 251 251 252 254 255 256 256 253 252 252 253 256 257 258 258 259 259 260 260 261 262 263 264 266 267 267 268 269 269 270 270 271 271 273 274 275 275 276 275 275 275 276 278 280 282 283 283 283 282 282 282 283 283 283 283 283 283 284 284 285 285 285 285 285 285 285 286 286 286 286 287 287 288 288 289 289 290 290 290 291 291 292 292
249 250 250 250 250 251 252 253 255 256 256 255 255 255 256 258 260 260 262 263 263 264 264 265 266 267 267 268 269 270 271 272 272 273 273 273 274 274 275 275 275 275 275 275 276 278 279 280 281 281 280 281 281 281 282 282 282 282 282 283 283 283 284 284 284 284 284 284 285 285 285 285 286 286 287 288 288 289 290 290 290 291 291 291 292 292
246 248 249 248 249 250 251 253 254 256 257 257 257 258 259 260 262 263 264 265 266 266 267 268 268 268 269 269 270 271 272 273 274 274 275 275 275 275 275 274 274 274 274 275 276 277 278 279 279 279 279 279 280 280 281 281 281 281 281 281 282 282 282 283 283 283 283 284 284 284 285 285 286 286 287 288 288 289 290 291 291 291 292 292 292 293
244 245 247 247 248 250 252 254 256 256 258 258 258 259 260 261 262 263 264 265 266 267 267 268 269 269 270 270 271 272 273 273 274 274 275 275 275 275 274 274 274 274 275 275 276 277 277 278 278 278 278 278 279 279 279 280 280 280 280 281 281 281 282 282 282 282 283 283 284 284 285 285 286 286 287 287 288 289 290 291 291 292 293 293 293 293
246 246 247 248 249 250 251 253 255 256 257 257 257 257 258 259 260 261 262 263 264 265 266 266 267 268 268 269 270 270 271 271 272 272 273 273 273 273 274 274 274 274 275 275 275 276 276 276 276 276 277 277 278 278 279 279 280 280 280 281 281 281 282 282 282 282 283 283 284 284 285 285 286 287 287 288 288 289 290 290 291 292 292 293 293 293
247 248 249 251 252 252 253 255 256 255 255 254 253 253 254 255 256 257 259 260 261 262 263 263 264 264 264 265 266 267 268 269 269 270 270 271 272 272 273 273 273 274 274 274 274 275 275 275 275 276 276 277 278 278 279 279 280 280 281 281 282 282 282 282 283 283 283 284 284 285 285 286 287 287 288 288 288 289 289 290 290 291 292 292 292 292
248 249 250 251 253 254 255 256 256 255 255 254 254 254 254 254 255 257 258 259 260 261 261 261 262 262 263 264 264 265 266 267 268 269 270 271 271 272 273 273 274 274 275 275 275 276 276 276 277 277 277 278 279 279 280 280 281 281 282 282 283 283 283 284 284 284 285 285 285 286 286 287 287 288 288 289 289 289 289 289 289 290 291 292 292 292
Height
5811 5814 5818 5823 5827 5830 5832 5834 5836 5838 5840 5841 5844 5845 5847 5849 5852 5854 5856 5858 5859 5861 5862 5864 5865 5867 5867 5868 5869 5870 5872 5873 5874 5875 5875 5875 5876 5876 5877 5877 5878 5877 5877 5879 5880 5881 5881 5882 5882 5883 5883 5884 5884 5884 5885 5885 5886 5886 5887 5886 5886 5887 5887 5886 5886 5887 5886 5886 5886 5886 5885 5885 5884 5884 5883 5882 5882 5881 5881 5880 5880 5879 5878 5878 5877 5876
5808 5812 5817 5821 5824 5826 5828 5830 5832 5835 5837 5839 5841 5843 5845 5847 5850 5852 5854 5856 5857 5859 5860 5861 5863 5865 5865 5866 5867 5868 5870 5871 5871 5872 5873 5873 5873 5874 5875 5875 5875 5875 5875 5876 5878 5879 5880 5881 5881 5881 5882 5882 5882 5882 5883 5883 5883 5884 5884 5884 5884 5885 5885 5884 5885 5885 5885 5885 5885 5885 5884 5884 5883 5882 5882 5881 5880 5880 5879 5879 5878 5877 5876 5876 5875 5874
5806 5810 5814 5816 5819 5821 5824 5827 5829 5831 5833 5836 5838 5841 5843 5845 5848 5849 5851 5853 5854 5856 5857 5859 5861 5863 5863 5863 5864 5865 5867 5868 5868 5869 5870 5870 5871 5872 5872 5873 5873 5873 5873 5873 5875 5878 5879 5879 5879 5879 5880 5880 5880 5880 5881 5881 5881 5882 5882 5882 5882 5883 5883 5883 5883 5883 5883 5883 5884 5883 5883 5882 5882 5881 5880 5879 5879 5878 5877 5877 5876 5875 5874 5873 5873 5872
5806 5809 5811 5813 5816 5819 5821 5824 5827 5829 5831 5834 5836 5838 5841 5843 5845 5846 5848 5850 5851 5853 5855 5857 5859 5860 5860 5860 5862 5862 5864 5865 5866 5866 5867 5867 5868 5869 5870 5871 5871 5871 5870 5871 5873 5875 5877 5877 5877 5877 5877 5877 5877 5878 5878 5878 5879 5879 5879 5879 5880 5880 5880 5881 5881 5881 5881 5882 5882 5881 5881 5880 5880 5879 5878 5877 5876 5876 5875 5874 5873 5872 5872 5871 5870 5869
5804 5806 5809 5812 5814 5816 5819 5822 5824 5827 5829 5832 5834 5836 5838 5840 5842 5844 5845 5847 5848 5850 5852 5854 5856 5857 5858 5858 5859 5859 5861 5862 5863 5863 5864 5865 5865 5866 5867 5869 5869 5869 5868 5869 5871 5873 5874 5874 5874 5874 5874 5874 5875 5875 5876 5876 5877 5877 5877 5877 5877 5878 5878 5878 5879 5879 5879 5879 5879 5879 5879 5878 5878 5877 5875 5874 5873 5873 5873 5872 5871 5870 5869 5868 5867 5866
5798 5801 5805 5808 5810 5813 5816 5819 5822 5824 5827 5829 5832 5834 5835 5837 5839 5841 5842 5844 5845 5847 5849 5851 5852 5854 5856 5856 5856 5857 5857 5859 5859 5860 5861 5862 5863 5863 5864 5866 5866 5866 5866 5867 5868 5870 5871 5871 5871 5871 5871 5872 5873 5873 5874 5874 5875 5875 5875 5875 5875 5875 5876 5876 5877 5877 5877 5877 5877 5877 5876 5876 5875 5874 5872 5871 5871 5870 5870 5869 5868 5866 5865 5865 5864 5863
5794 5798 5801 5803 5806 5809 5812 5816 5819 5821 5824 5826 5828 5830 5832 5834 5835 5837 5839 5841 5842 5844 5846 5847 5848 5850 5853 5853 5853 5854 5854 5855 5856 5857 5858 5859 5860 5860 5861 5862 5863 5863 5864 5865 5866 5866 5867 5868 5869 5869 5869 5870 5870 5871 5871 5872 5872 5873 5873 5873 5873 5873 5873 5874 5874 5875 5875 5875 5874 5874 5873 5872 5872 5870 5869 5868 5868 5867 5866 5865 5864 5863 5862 5861 5860 5859
5792 5795 5798 5800 5803 5806 5809 5813 5816 5818 5821 5823 5825 5827 5828 5830 5832 5834 5836 5837 5839 5840 5842 5844 5845 5846 5850 5851 5851 5851 5850 5851 5853 5854 5855 5856 5857 5858 5858 5859 5860 5860 5861 5862 5862 5863 5864 5865 5866 5866 5867 5867 5868 5868 5869 5869 5870 5870 5871 5871 5871 5871 5871 5871 5871 5872 5872 5871 5871 5870 5870 5869 5868 5867 5866 5866 5865 5864 5863 5862 5861 5860 5859 5857 5856 5855
5790 5793 5796 5798 5801 5805 5808 5811 5813 5815 5817 5819 5821 5823 5825 5827 5828 5830 5832 5833 5835 5837 5839 5841 5842 5843 5846 5848 5848 5847 5847 5848 5849 5851 5852 5853 5854 5855 5855 5856 5857 5857 5858 5859 5859 5860 5861 5862 5863 5864 5864 5864 5865 5865 5866 5867 5867 5867 5868 5868 5868 5868 5868 5868 5868 5868 5868 5868 5868 5867 5866 5866 5865 5864 5864 5863 5862 5861 5860 5859 5858 5856 5855 5854 5853 5851
5786 5790 5792 5795 5798 5802 5804 5806 5808 5811 5812 5815 5817 5819 5821 5823 5825 5827 5828 5830 5832 5833 5835 5838 5839 5839 5842 5845 5845 5844 5844 5845 5846 5847 5848 5850 5851 5852 5853 5853 5854 5855 5855 5856 5856 5857 5858 5859 5860 5861 5861 5862 5862 5862 5863 5863 5864 5864 5864 5864 5864 5865 5865 5865 5865 5865 5865 5864 5864 5863 5863 5862 5861 5861 5860 5859 5859 5857 5857 5855 5854 5853 5851 5850 5849 5847
5781 5784 5787 5791 5794 5797 5799 5801 5803 5806 5808 5811 5813 5815 5818 5819 5821 5823 5825 5827 5828 5830 5832 5834 5836 5836 5838 5841 5842 5842 5842 5842 5843 5844 5845 5846 5847 5849 5850 5851 5851 5852 5852 5853 5854 5854 5855 5856 5857 5858 5858 5859 5859 5859 5860 5860 5860 5860 5861 5861 5861 5861 5861 5861 5861 5861 5861 5861 5860 5860 5859 5858 5857 5857 5856 5855 5854 5853 5852 5851 5849 5848 5847 5846 5844 5842
5777 5780 5782 5786 5789 5792 5795 5797 5799 5802 5804 5807 5810 5812 5814 5816 5818 5820 5822 5823 5825 5827 5829 5831 5832 5833 5834 5837 5838 5839 5839 5839 5840 5840 5841 5842 5844 5845 5847 5848 5849 5849 5849 5850 5850 5851 5852 5853 5853 5854 5855 5855 5855 5856 5856 5856 5856 5857 5857 5857 5857 5858 5858 5858 5858 5857 5857 5856 5856 5855 5854 5854 5853 5852 5851 5851 5849 5848 5847 5846 5844 5843 5842 5841 5839 5838
5774 5777 5779 5782 5785 5788 5791 5793 5796 5798 5801 5804 5806 5809 5810 5812 5815 5816 5818 5820 5821 5824 5826 5827 5829 5830 5831 5832 5833 5835 5836 5837 5837 5837 5838 5839 5840 5842 5843 5844 5845 5846 5846 5847 5847 5848 5849 5849 5850 5850 5851 5851 5851 5852 5852 5852 5853 5853 5853 5853 5853 5853 5853 5853 5853 5852 5852 5851 5850 5850 5849 5849 5848 5847 5846 5846 5844 5843 5842 5841 5839 5838 5837 5835 5834 5832
5772 5775 5778 5780 5783 5786 5788 5791 5794 5797 5799 5801 5804 5806 5808 5810 5811 5813 5815 5816 5818 5820 5822 5824 5825 5826 5828 5828 5829 5831 5833 5834 5835 5834 5835 5835 5836 5837 5839 5840 5842 5842 5843 5843 5843 5844 5845 5845 5846 5846 5847 5847 5847 5847 5847 5848 5848 5849 5849 5848 5848 5848 5848 5848 5847 5847 5846 5846 5845 5844 5844 5843 5843 5842 5841 5840 5839 5838 5837 5836 5834 5833 5831 5830 5829 5827
5770 5773 5777 5780 5782 5784 5786 5789 5792 5794 5795 5797 5799 5801 5803 5805 5807 5809 5810 5812 5814 5816 5818 5820 5821 5823 5825 5825 5825 5827 5829 5831 5831 5831 5831 5832 5832 5834 5835 5836 5837 5838 5839 5839 5840 5840 5841 5841 5842 5842 5842 5842 5842 5842 5843 5843 5844 5844 5844 5843 5843 5843 5843 5842 5842 5842 5841 5841 5840 5840 5839 5838 5838 5837 5836 5835 5834 5833 5831 5830 5829 5827 5826 5825 5823 5822
5766 5770 5774 5776 5778 5781 5783 5785 5787 5788 5790 5792 5795 5797 5799 5801 5803 5805 5806 5808 5810 5812 5814 5816 5818 5820 5821 5821 5822 5824 5825 5826 5827 5828 5829 5829 5829 5830 5831 5832 5833 5834 5834 5835 5836 5836 5837 5837 5838 5838 5838 5838 5838 5838 5838 5839 5839 5839 5839 5838 5838 5838 5838 5838 5837 5837 5836 5836 5835 5834 5833 5833 5832 5831 5830 5829 5828 5827 5825 5824 5823 5821 5820 5819 5817 5816
5764 5766 5769 5771 5773 5776 5777 5780 5782 5783 5786 5789 5791 5794 5797 5799 5800 5801 5802 5804 5806 5807 5809 5812 5815 5817 5817 5818 5819 5821 5822 5823 5823 5824 5825 5826 5826 5827 5828 5829 5829 5830 5830 5830 5831 5832 5832 5833 5833 5834 5834 5833 5833 5833 5833 5834 5834 5834 5833 5833 5833 5833 5833 5833 5832 5831 5831 5830 5829 5829 5828 5827 5826 5825 5824 5823 5821 5820 5819 5818 5817 5815 5813 5812 5811 5809
5761 5763 5766 5768 5769 5772 5774 5775 5777 5780 5782 5785 5788 5791 5793 5793 5794 5796 5797 5799 5801 5803 5805 5809 5812 5813 5814 5815 5816 5817 5818 5819 5819 5820 5821 5822 5823 5823 5824 5825 5825 5826 5826 5826 5827 5828 5828 5829 5829 5829 5829 5829 5828 5828 5828 5829 5829 5829 5828 5828 5828 5828 5828 5828 5827 5826 5825 5824 5824 5823 5822 5821 5821 5819 5818 5817 5816 5814 5813 5812 5811 5809 5807 5806 5804 5802
5756 5758 5760 5763 5765 5767 5769 5770 5772 5775 5778 5781 5784 5786 5787 5787 5790 5792 5793 5795 5798 5799 5802 5805 5807 5809 5811 5812 5813 5813 5814 5815 5815 5816 5817 5818 5819 5820 5820 5821 5821 5822 5822 5823 5823 5824 5824 5824 5824 5824 5824 5824 5824 5824 5824 5824 5824 5824 5824 5824 5824 5823 5823 5822 5821 5820 5819 5819 5818 5817 5817 5816 5815 5814 5812 5811 5810 5809 5807 5806 5805 5803 5801 5799 5797 5796
5751 5753 5755 5757 5760 5761 5763 5765 5768 5772 5775 5777 5779 5781 5782 5784 5787 5789 5790 5792 5794 5796 5798 5800 5802 5805 5808 5809 5809 5809 5809 5811 5812 5813 5813 5814 5815 5816 5817 5817 5817 5818 5818 5819 5819 5819 5820 5819 5819 5819 5819 5819 5819 5819 5819 5819 5819 5819 5819 5819 5819 5818 5817 5816 5816 5815 5814 5813 5812 5812 5811 5810 5809 5807 5806 5805 5804 5802 5801 5800 5798 5797 5794 5792 5790 5789
5746 5748 5750 5752 5754 5756 5758 5762 5766 5769 5771 5772 5775 5777 5779 5781 5783 5785 5786 5788 5790 5791 5793 5794 5797 5801 5804 5804 5805 5805 5805 5806 5807 5808 5809 5810 5811 5812 5813 5814 5814 5814 5814 5815 5815 5815 5815 5815 5815 5814 5814 5815 5815 5814 5814 5814 5814 5814 5814 5814 5813 5813 5812 5811 5810 5809 5809 5808 5807 5806 5805 5804 5803 5801 5800 5799 5797 5796 5795 5793 5792 5790 5788 5785 5783 5781
5742 5744 5746 5747 5750 5753 5756 5759 5762 5764 5765 5768 5770 5773 5775 5777 5778 5779 5780 5783 5786 5787 5788 5789 5792 5797 5799 5800 5801 5801 5801 5801 5802 5803 5804 5806 5807 5808 5809 5809 5809 5810 5810 5810 5810 5809 5809 5809 5809 5809 5809 5809 5809 5809 5808 5808 5808 5808 5808 5808 5807 5806 5806 5805 5804 5803 5802 5802 5801 5800 5799 5797 5796 5795 5793 5792 5790 5789 5787 5786 5785 5783 5781 5779 5776 5774
5737 5739 5741 5743 5746 5748 5750 5753 5756 5758 5760 5763 5765 5768 5770 5771 5773 5775 5776 5780 5781 5781 5783 5785 5787 5792 5795 5796 5797 5797 5797 5797 5797 5798 5800 5801 5802 5803 5803 5803 5803 5804 5805 5805 5805 5805 5805 5805 5805 5804 5804 5804 5803 5803 5802 5802 5802 5802 5801 5801 5800 5800 5799 5798 5797 5796 5795 5795 5794 5793 5791 5790 5789 5788 5786 5785 5783 5782 5780 5779 5777 5776 5774 5772 5770 5767
5732 5733 5734 5737 5739 5741 5744 5747 5750 5752 5754 5757 5760 5764 5766 5767 5770 5771 5772 5775 5775 5776 5780 5780 5782 5788 5792 5792 5793 5793 5792 5792 5792 5794 5795 5796 5796 5796 5796 5797 5796 5797 5798 5799 5799 5799 5800 5800 5800 5799 5799 5798 5798 5797 5797 5797 5796 5796 5795 5795 5794 5794 5793 5792 5791 5790 5789 5788 5787 5786 5785 5783 5782 5780 5779 5777 5776 5774 5772 5771 5769 5767 5766 5764 5762 5759
5726 5726 5728 5730 5732 5734 5737 5739 5742 5746 5750 5754 5758 5760 5761 5763 5765 5765 5767 5769 5769 5773 5776 5775 5779 5786 5788 5788 5788 5787 5787 5787 5786 5788 5789 5789 5789 5789 5789 5789 5789 5790 5791 5792 5793 5793 5793 5793 5793 5793 5793 5792 5792 5792 5791 5791 5791 5790 5790 5789 5788 5788 5787 5786 5785 5784 5783 5781 5780 5779 5778 5777 5775 5773 5772 5770 5768 5766 5764 5763 5761 5759 5757 5756 5754 5752
5718 5718 5721 5723 5724 5727 5731 5735 5741 5746 5749 5751 5754 5756 5758 5759 5760 5762 5763 5762 5765 5771 5771 5771 5777 5782 5783 5782 5782 5780 5779 5779 5780 5782 5783 5783 5782 5782 5782 5782 5783 5784 5785 5785 5785 5786 5786 5786 5786 5786 5786 5786 5786 5785 5785 5785 5785 5784 5783 5783 5782 5781 5780 5780 5778 5777 5776 5775 5774 5772 5771 5769 5768 5766 5764 5762 5760 5758 5756 5755 5753 5751 5749 5748 5746 5744
5709 5711 5715 5717 5720 5725 5730 5734 5739 5742 5743 5744 5748 5750 5751 5753 5754 5755 5754 5756 5762 5765 5764 5767 5773 5775 5776 5776 5774 5773 5772 5772 5774 5775 5776 5776 5775 5775 5776 5777 5777 5778 5778 5778 5778 5778 5778 5778 5778 5778 5778 5778 5778 5778 5777 5777 5777 5776 5776 5775 5774 5774 5773 5772 5771 5770 5769 5768 5767 5765 5763 5761 5760 5758 5756 5754 5752 5751 5749 5747 5745 5743 5741 5740 5738 5736
5702 5705 5710 5714 5717 5723 5727 5729 5732 5734 5735 5738 5740 5742 5743 5745 5746 5746 5746 5752 5757 5755 5756 5764 5768 5769 5771 5769 5768 5769 5767 5766 5767 5767 5768 5769 5769 5769 5770 5771 5771 5771 5771 5770 5770 5770 5770 5770 5770 5770 5770 5769 5769 5769 5768 5767 5767 5767 5766 5766 5765 5765 5764 5763 5762 5761 5760 5759 5758 5756 5755 5753 5752 5750 5748 5747 5745 5743 5742 5740 5738 5736 5734 5732 5731 5729
5697 5700 5707 5711 5713 5718 5720 5721 5725 5727 5729 5731 5733 5735 5737 5738 5738 5739 5743 5749 5751 5749 5754 5761 5761 5763 5765 5763 5763 5764 5762 5761 5760 5760 5762 5763 5762 5763 5764 5763 5763 5764 5764 5763 5761 5762 5763 5762 5762 5763 5763 5762 5761 5760 5759 5758 5757 5757 5756 5756 5755 5755 5754 5753 5752 5751 5750 5749 5748 5747 5746 5745 5743 5742 5740 5739 5737 5736 5734 5732 5730 5728 5727 5725 5723 5721
5691 5696 5702 5704 5707 5711 5712 5714 5718 5720 5721 5723 5726 5729 5730 5731 5733 5736 5740 5744 5745 5745 5750 5752 5753 5757 5760 5758 5759 5759 5757 5756 5756 5755 5757 5758 5756 5757 5756 5755 5755 5755 5756 5756 5755 5754 5755 5755 5755 5755 5755 5755 5753 5752 5750 5749 5749 5748 5747 5746 5745 5745 5745 5744 5743 5742 5741 5740 5739 5738 5737 5736 5734 5733 5732 5730 5729 5727 5726 5724 5722 5720 5719 5717 5715 5713
5687 5691 5695 5698 5700 5702 5705 5708 5711 5712 5713 5715 5718 5720 5723 5726 5728 5732 5736 5738 5738 5739 5743 5744 5745 5753 5756 5754 5754 5754 5751 5751 5751 5750 5751 5751 5749 5748 5747 5747 5748 5747 5748 5748 5748 5747 5747 5747 5747 5747 5747 5746 5745 5744 5742 5741 5741 5740 5739 5739 5738 5737 5736 5735 5734 5733 5733 5732 5730 5729 5728 5727 5725 5724 5722 5721 5720 5718 5717 5715 5714 5712 5710 5709 5707 5705
5683 5686 5689 5692 5692 5694 5699 5702 5702 5705 5705 5705 5707 5714 5719 5722 5725 5728 5731 5731 5731 5734 5737 5735 5738 5748 5752 5748 5747 5747 5745 5744 5744 5744 5743 5742 5741 5741 5740 5741 5741 5741 5741 5740 5740 5740 5739 5738 5738 5738 5738 5738 5737 5736 5735 5734 5734 5733 5732 5732 5731 5730 5729 5728 5727 5725 5724 5723 5722 5721 5719 5718 5716 5714 5713 5712 5710 5709 5707 5706 5704 5703 5701 5700 5699 5697
5677 5680 5684 5685 5685 5689 5693 5693 5695 5697 5693 5693 5703 5713 5717 5718 5720 5721 5721 5724 5727 5728 5728 5727 5734 5742 5743 5738 5738 5739 5738 5737 5737 5736 5735 5734 5735 5734 5735 5735 5735 5735 5735 5734 5733 5732 5732 5731 5730 5730 5730 5729 5729 5729 5728 5727 5726 5726 5725 5724 5723 5722 5721 5720 5719 5717 5716 5714 5713 5712 5711 5709 5708 5706 5704 5703 5701 5700 5698 5696 5695 5693 5692 5691 5690 5688
5671 5674 5677 5677 5679 5682 5684 5686 5687 5683 5680 5691 5706 5712 5711 5711 5711 5711 5714 5719 5721 5721 5720 5722 5728 5731 5731 5731 5731 5731 5730 5730 5730 5728 5727 5729 5730 5730 5729 5729 5728 5728 5728 5727 5726 5725 5724 5724 5724 5723 5723 5722 5722 5721 5720 5719 5718 5717 5717 5716 5715 5714 5713 5711 5710 5709 5707 5706 5704 5703 5702 5701 5700 5698 5696 5695 5693 5691 5690 5688 5687 5685 5683 5683 5681 5679
5665 5667 5669 5670 5672 5674 5676 5678 5674 5671 5679 5696 5703 5702 5702 5703 5703 5704 5708 5711 5712 5712 5713 5717 5721 5723 5724 5724 5724 5723 5723 5722 5721 5721 5722 5723 5724 5724 5723 5722 5722 5722 5721 5720 5720 5718 5718 5717 5716 5716 5716 5715 5714 5714 5712 5711 5710 5709 5708 5707 5707 5706 5705 5704 5703 5701 5700 5698 5696 5695 5694 5693 5692 5690 5688 5687 5685 5684 5682 5680 5678 5676 5675 5674 5672 5670
5658 5660 5661 5663 5664 5666 5668 5668 5666 5669 5682 5691 5692 5694 5698 5697 5696 5697 5699 5703 5706 5707 5708 5711 5715 5716 5715 5715 5715 5715 5714 5714 5713 5714 5716 5717 5717 5717 5716 5716 5716 5715 5714 5714 5712 5711 5710 5709 5709 5709 5709 5708 5706 5705 5704 5703 5702 5700 5700 5699 5698 5698 5697 5696 5695 5693 5692 5690 5688 5687 5686 5685 5684 5682 5680 5678 5677 5675 5673 5671 5669 5666 5665 5665 5663 5660
5651 5653 5655 5656 5656 5658 5660 5661 5663 5667 5674 5680 5685 5691 5692 5690 5690 5691 5690 5694 5700 5700 5701 5705 5707 5706 5705 5705 5705 5705 5706 5706 5706 5709 5711 5711 5710 5710 5709 5708 5708 5707 5706 5706 5705 5704 5703 5702 5701 5700 5701 5700 5698 5697 5696 5695 5694 5692 5691 5690 5690 5689 5688 5687 5686 5684 5683 5681 5679 5677 5675 5674 5674 5672 5670 5668 5667 5665 5663 5661 5658 5656 5654 5653 5652 5650
5644 5646 5648 5648 5649 5652 5653 5655 5657 5658 5665 5676 5682 5684 5684 5681 5682 5682 5680 5686 5694 5695 5695 5698 5698 5696 5696 5696 5696 5697 5698 5697 5700 5705 5705 5702 5701 5701 5701 5700 5700 5699 5698 5698 5697 5696 5695 5694 5693 5692 5692 5692 5691 5689 5688 5686 5685 5684 5682 5681 5681 5680 5679 5677 5676 5675 5673 5671 5668 5666 5665 5663 5662 5661 5660 5658 5655 5654 5652 5650 5647 5644 5642 5641 5640 5639
5638 5640 5641 5641 5641 5644 5645 5648 5649 5651 5662 5673 5675 5675 5674 5672 5675 5674 5670 5678 5691 5691 5688 5690 5689 5686 5687 5689 5689 5690 5689 5690 5695 5699 5694 5691 5692 5692 5691 5692 5691 5690 5690 5689 5689 5688 5686 5685 5685 5684 5683 5683 5683 5682 5680 5678 5677 5675 5674 5673 5672 5672 5670 5668 5667 5665 5663 5661 5658 5656 5654 5652 5650 5649 5648 5646 5645 5642 5640 5638 5636 5633 5631 5628 5627 5626
5630 5632 5633 5633 5635 5638 5640 5640 5641 5647 5657 5664 5665 5666 5665 5665 5668 5665 5662 5674 5687 5684 5682 5683 5679 5676 5680 5682 5681 5682 5682 5683 5687 5687 5683 5682 5684 5683 5683 5683 5683 5682 5682 5681 5680 5680 5678 5677 5676 5675 5675 5674 5674 5673 5672 5670 5668 5666 5665 5663 5663 5663 5661 5659 5658 5656 5653 5651 5648 5645 5642 5640 5638 5637 5635 5634 5633 5631 5628 5625 5623 5621 5619 5616 5614 5612
5622 5624 5626 5627 5630 5633 5634 5634 5636 5642 5652 5657 5657 5658 5657 5656 5657 5656 5661 5673 5677 5673 5675 5676 5669 5669 5674 5673 5672 5674 5675 5675 5677 5677 5675 5676 5677 5676 5675 5675 5675 5675 5674 5673 5672 5672 5670 5669 5668 5667 5666 5665 5664 5664 5662 5661 5659 5657 5655 5654 5653 5653 5652 5650 5648 5646 5643 5641 5638 5635 5632 5629 5626 5625 5623 5621 5619 5619 5617 5612 5609 5608 5606 5603 5601 5599
5615 5618 5618 5621 5624 5626 5628 5629 5629 5635 5646 5651 5651 5650 5647 5644 5647 5654 5661 5665 5663 5662 5666 5665 5661 5663 5665 5665 5666 5667 5667 5667 5668 5668 5668 5669 5669 5669 5669 5668 5668 5667 5666 5665 5664 5663 5661 5660 5658 5657 5656 5656 5655 5654 5652 5651 5649 5647 5645 5644 5643 5642 5642 5640 5638 5636 5633 5631 5628 5624 5621 5618 5616 5613 5611 5609 5607 5606 5605 5601 5597 5595 5593 5590 5588 5586
5609 5611 5610 5613 5618 5620 5621 5620 5620 5629 5643 5648 5644 5642 5639 5637 5644 5652 5653 5652 5652 5655 5655 5654 5654 5655 5655 5657 5659 5659 5659 5660 5660 5660 5660 5660 5661 5661 5660 5660 5660 5658 5657 5656 5655 5653 5652 5650 5648 5647 5645 5645 5644 5643 5642 5641 5639 5637 5635 5634 5633 5632 5631 5630 5628 5625 5623 5620 5617 5614 5611 5608 5606 5602 5599 5597 5595 5593 5592 5590 5586 5584 5581 5577 5575 5574
5600 5602 5603 5607 5611 5611 5610 5610 5615 5627 5638 5639 5636 5636 5634 5634 5639 5642 5640 5641 5645 5646 5646 5647 5647 5645 5646 5648 5650 5650 5652 5652 5652 5652 5653 5652 5652 5652 5651 5651 5651 5649 5649 5648 5646 5645 5643 5641 5639 5637 5635 5634 5634 5633 5632 5631 5629 5627 5625 5623 5622 5622 5621 5619 5617 5615 5612 5609 5606 5603 5601 5598 5595 5592 5589 5586 5583 5581 5580 5578 5575 5573 5570 5566 5562 5560
5593 5598 5600 5601 5603 5603 5603 5606 5612 5620 5627 5630 5631 5631 5629 5628 5630 5630 5630 5633 5635 5636 5637 5639 5639 5639 5639 5639 5639 5641 5642 5642 5643 5644 5643 5643 5644 5643 5642 5642 5641 5640 5640 5639 5638 5636 5635 5633 5631 5628 5625 5624 5623 5622 5621 5620 5619 5618 5615 5613 5612 5611 5610 5609 5606 5604 5601 5598 5595 5592 5590 5588 5585 5581 5578 5575 5572 5569 5567 5565 5562 5561 5558 5555 5551 5547
5587 5591 5593 5593 5595 5596 5597 5600 5605 5611 5616 5621 5624 5623 5621 5620 5621 5621 5622 5623 5625 5627 5628 5628 5630 5632 5631 5630 5630 5631 5631 5631 5632 5633 5633 5634 5634 5634 5633 5633 5632 5631 5631 5630 5629 5627 5626 5624 5622 5619 5615 5613 5611 5611 5610 5608 5607 5606 5605 5603 5601 5600 5599 5598 5596 5593 5590 5587 5584 5581 5578 5576 5574 5571 5568 5564 5560 5557 5554 5551 5549 5547 5546 5543 5538 5534
5579 5582 5584 5584 5585 5587 5589 5595 5601 5604 5608 5611 5614 5614 5614 5612 5610 5611 5612 5613 5615 5617 5618 5619 5621 5622 5622 5621 5622 5621 5621 5622 5623 5623 5623 5624 5624 5624 5624 5623 5622 5621 5621 5620 5619 5617 5616 5614 5612 5609 5606 5603 5601 5600 5599 5597 5596 5594 5593 5593 5591 5589 5588 5586 5584 5582 5579 5576 5573 5570 5567 5564 5562 5560 5558 5554 5550 5546 5544 5540 5536 5534 5533 5530 5525 5522
5572 5574 5575 5576 5578 5580 5584 5590 5595 5597 5599 5602 5604 5606 5605 5603 5602 5603 5604 5605 5607 5609 5610 5611 5612 5612 5613 5613 5612 5612 5613 5613 5613 5614 5614 5613 5613 5613 5613 5612 5611 5611 5609 5608 5608 5606 5605 5603 5601 5599 5597 5594 5592 5591 5588 5586 5584 5583 5581 5581 5580 5578 5577 5575 5572 5570 5568 5565 5562 5559 5556 5553 5551 5549 5546 5544 5541 5537 5534 5530 5526 5523 5521 5518 5511 5508
5564 5566 5569 5571 5572 5574 5578 5584 5589 5590 5591 5593 5595 5597 5598 5597 5596 5596 5597 5598 5599 5600 5601 5603 5603 5604 5604 5604 5604 5604 5605 5604 5605 5605 5604 5604 5604 5603 5602 5601 5600 5599 5599 5598 5597 5596 5594 5593 5591 5589 5587 5585 5583 5581 5579 5576 5574 5572 5571 5570 5568 5567 5566 5564 5561 5559 5557 5554 5551 5548 5545 5543 5540 5537 5535 5532 5530 5527 5524 5521 5516 5512 5510 5508 5501 5494
5557 5561 5565 5566 5565 5567 5574 5581 5583 5582 5583 5586 5587 5589 5589 5589 5588 5588 5589 5590 5591 5591 5592 5593 5594 5595 5596 5596 5596 5596 5596 5595 5596 5595 5595 5595 5594 5593 5592 5591 5590 5589 5588 5587 5586 5585 5584 5583 5581 5580 5578 5576 5574 5572 5570 5567 5564 5562 5561 5559 5557 5556 5554 5552 5550 5548 5546 5543 5541 5537 5535 5532 5529 5526 5523 5520 5518 5515 5514 5511 5507 5501 5497 5496 5492 5485
5552 5556 5558 5558 5558 5563 5570 5573 5571 5570 5573 5577 5578 5578 5579 5580 5581 5581 5582 5583 5583 5583 5584 5585 5585 5586 5587 5587 5588 5587 5587 5586 5586 5585 5585 5585 5584 5583 5582 5581 5580 5579 5578 5577 5576 5575 5574 5573 5571 5570 5568 5566 5565 5562 5560 5558 5555 5552 5551 5549 5547 5545 5542 5540 5538 5536 5534 5532 5529 5526 5523 5521 5518 5515 5512 5508 5504 5501 5499 5498 5498 5494 5487 5481 5478 5475